Location: *
(50.5492°N, 7.7469°E)
Time: 20:46:54
(UTC+00:00)

Cosmos 1300 - Pass Details

Date: 21 October 2019
Orbit: 511 x 515 km, 82.5° (Epoch: 22 November)

Event Time Altitude Azimuth Distance (km) Brightness Sun altitude
Rises 17:48:20 0° 168° (SSE) 2,622 6.2 -13.8°
Reaches altitude 10° 17:50:33 10° 159° (SSE) 1,740 5.2 -14.2°
Maximum altitude 17:54:04 36° 92° (E) 833 3.2 -14.7°
Drops below altitude 10° 17:57:36 10° 26° (NNE) 1,753 5.1 -15.3°
Sets 17:59:51 0° 17° (NNE) 2,644 6.1 -15.6°
